Tracking 20241 objects as of 26-Jan-2020
HD Live streaming from Space Station
objects crossing your sky now

PSLV R/B

Track PSLV R/B now!
10-day predictions


NORAD ID: 42052
Int'l Code: 2017-008DJ
Perigee: 479.3 km
Apogee: 494.4 km
Inclination: 97.4 °
Period: 94.2 minutes
Semi major axis: 6857 km
RCS: Unknown
Launch date: February 15, 2017
Source: India (IND)
Launch site: SRIHARIKOTA (SRI)

Note: This is a ROCKET BODY
aabbcc
Your satellite tracking list
Your tracking list is empty




NASA's NSSDC Master Catalog

Two Line Element Set (TLE):
1 42052U 17008DJ  20026.28745056 +.00000497 +00000-0 +20482-4 0  9996
2 42052 097.3844 101.6978 0010993 244.8376 115.1724 15.28707838164155
Source of the keplerian elements: AFSPC